TimeEDT,TemperatureF,Dew PointF,Humidity,Sea Level PressureIn,VisibilityMPH,Wind Direction,Wind SpeedMPH,Gust SpeedMPH,PrecipitationIn,Events,Conditions,WindDirDegrees,DateUTC
12:52 AM,46.9,39.0,74,30.10,10.0,Variable,3.5,-,N/A,,Clear,0,2013-05-27 04:52:00
1:52 AM,46.9,39.9,77,30.10,10.0,West,5.8,-,N/A,,Scattered Clouds,280,2013-05-27 05:52:00
2:52 AM,48.0,39.0,71,30.11,10.0,West,5.8,-,N/A,,Clear,280,2013-05-27 06:52:00
3:52 AM,46.9,37.9,71,30.12,10.0,Variable,4.6,-,N/A,,Clear,0,2013-05-27 07:52:00
4:52 AM,46.0,37.9,73,30.13,10.0,West,4.6,-,N/A,,Clear,270,2013-05-27 08:52:00
5:52 AM,46.9,39.9,77,30.14,10.0,Calm,Calm,-,N/A,,Clear,0,2013-05-27 09:52:00
6:52 AM,52.0,42.1,69,30.14,10.0,West,4.6,-,N/A,,Clear,280,2013-05-27 10:52:00
7:52 AM,55.9,42.1,60,30.14,10.0,Variable,5.8,-,N/A,,Clear,0,2013-05-27 11:52:00
8:52 AM,59.0,41.0,51,30.15,10.0,Variable,4.6,-,N/A,,Clear,0,2013-05-27 12:52:00
9:52 AM,62.1,45.0,53,30.15,10.0,Variable,5.8,-,N/A,,Clear,0,2013-05-27 13:52:00
10:52 AM,64.0,50.0,60,30.14,10.0,SW,6.9,-,N/A,,Partly Cloudy,230,2013-05-27 14:52:00
11:52 AM,66.9,39.9,37,30.13,10.0,West,10.4,-,N/A,,Scattered Clouds,280,2013-05-27 15:52:00
12:52 PM,68.0,37.0,32,30.12,10.0,Variable,5.8,16.1,N/A,,Clear,0,2013-05-27 16:52:00
1:52 PM,68.0,35.1,30,30.12,10.0,Variable,4.6,-,N/A,,Clear,0,2013-05-27 17:52:00
2:52 PM,66.0,46.9,50,30.12,10.0,SW,12.7,20.7,N/A,,Clear,220,2013-05-27 18:52:00
3:52 PM,69.1,46.0,44,30.11,10.0,WSW,4.6,18.4,N/A,,Clear,240,2013-05-27 19:52:00
4:52 PM,64.9,48.0,54,30.11,10.0,SW,9.2,21.9,N/A,,Clear,230,2013-05-27 20:52:00
5:52 PM,64.0,44.1,48,30.12,10.0,WSW,8.1,-,N/A,,Clear,250,2013-05-27 21:52:00
6:52 PM,61.0,42.1,50,30.12,10.0,WSW,8.1,19.6,N/A,,Clear,240,2013-05-27 22:52:00
7:52 PM,59.0,44.1,58,30.14,10.0,WSW,8.1,21.9,N/A,,Clear,250,2013-05-27 23:52:00
8:52 PM,55.9,46.9,72,30.15,10.0,WSW,4.6,-,N/A,,Clear,240,2013-05-28 00:52:00
9:52 PM,55.0,46.0,72,30.17,10.0,WSW,3.5,-,N/A,,Clear,250,2013-05-28 01:52:00
10:52 PM,54.0,45.0,72,30.18,10.0,WSW,3.5,-,N/A,,Clear,240,2013-05-28 02:52:00
11:52 PM,52.0,45.0,77,30.19,10.0,Calm,Calm,-,N/A,,Clear,0,2013-05-28 03:52:00